www.pogodaiklimat.ru

ПОГОДА в Сосуново

  • Прогноз погоды в Сосуново
  • Монитор погоды в Сосуново
  • Климат города

АРХИВ ПОГОДЫ в Сосуново

Время (UTC), дата Ветер
(напр.,м/с)
 
Видим.   Явления Облачность Т
(С)
Тd
(С)
f
(%)
Тe
(С)
Тes
(С)
Комфортность P
(гПа)
Po
(гПа)
Тmin
(С)
Tmax
(С)
R
(мм)
S
(см)
18 9.01 СВ 1
{11}
20 км 3/0
[As op]
-13.9 -24.3 41 -16 -16 1003.6 1003.2
21 9.01 З 8-12
{13}
20 км ясно -13.7 -26.0 35 -24 -24 1003.6 1003.2 -17.5 7
00 10.01 З 4
{15}
50 км ясно -13.0 -25.5 34 -20 -20 1005.2 1004.8
03 10.01 З 3 20 км ясно -10.8 -26.2 27 -17 -14 1004.5 1004.1
06 10.01 З 4
{13}
20 км 1/1 600 м
[Sc]
-11.7 -26.7 28 -19 -18 1005.0 1004.5
09 10.01 З 1 20 км ясно -15.3 -28.7 31 -18 -18 1006.3 1005.9 -10.6
12 10.01 З 5
{12}
20 км ясно -16.4 -28.9 33 -26 -26 1007.3 1006.9
15 10.01 З 2
{13}
20 км ясно -21.0 -30.6 42 -27 -27 1007.9 1007.4
18 10.01 СЗ 3 20 км ясно -23.9 -30.9 52 -32 -32 опасность
обморожения
1007.6 1007.2
21 10.01 СЗ 3 20 км ясно -24.9 -31.1 56 -33 -33 опасность
обморожения
1007.5 1007.0 -25.8 7
00 11.01 З 1 20 км 4/0
[Ci fib]
-20.3 -29.5 44 -23 -22 1007.9 1007.5
03 11.01 З 3 20 км 6/0
[Cs]
-16.4 -30.4 29 -23 -21 1006.3 1005.9
06 11.01 СЗ 1 20 км 10/10 600 м
[Sc]
-16.1 -30.6 27 -19 -19 1004.4 1004.0
09 11.01 ЮЗ 2 20 км 3/0
[Cs]
-18.9 -31.3 33 -25 -25 1004.8 1004.4 -16.0
12 11.01 З 1 20 км 6/0
[Cs]
-19.6 -31.8 33 -23 -23 1002.9 1002.5
15 11.01 З 4
{12}
20 км 5/0
[Cs]
-19.2 -32.0 31 -28 -28 998.8 998.3
18 11.01 З 9-15
{16}
20 км 8/0
[Cs]
-18.7 -31.8 31 -31 -31 опасность
обморожения
994.5 994.1
21 11.01 З 5
{15}
20 км 10/10 600 м
[Sc]
-18.1 -31.2 31 -28 -28 991.6 991.1 -20.4 5
00 12.01 З 6-11
{15}
20 км 10/10 1000 м
[Sc]
-17.6 -31.3 29 -28 -28 992.8 992.4
03 12.01 З 4
{11}
20 км 10/10 1000 м
[Sc]
-16.3 -29.5 31 -24 -24 992.6 992.2
06 12.01 З 7-12
{12}
20 км 10/10 600 м
[Sc]
-16.4 -28.9 33 -27 -27 994.4 994.0
09 12.01 З 7-10
{12}
20 км 8/0
[As op]
-17.4 -28.9 36 -28 -28 997.5 997.1 -16.0
12 12.01 З 7-11
{12}
20 км 10/0
[As op]
-17.8 -29.7 35 -29 -29 999.8 999.4
15 12.01 З 7
{13}
20 км 5/0
[Ci fib]
-17.2 -26.2 45 -28 -28 1001.4 1001.0
18 12.01 З 6
{11}
20 км 3/0
[Ci fib]
-18.0 -29.3 36 -28 -28 1003.4 1002.9
21 12.01 З 5
{10}
20 км 10/0
[As op]
-18.3 -28.5 40 -28 -28 1004.5 1004.0 -18.3 5
00 13.01 З 6 20 км 9/0
[Cs]
-17.5 -28.3 38 -28 -27 1005.5 1005.1 -18.6
03 13.01 З 3 10 км слабый снег 10/10 600 м
[Sc]
-14.3 -21.5 54 -21 -21 1005.3 1004.9
06 13.01 З 3 20 км в посл. час снег 10/0
[Ac und]
-12.1 -17.8 62 -18 -18 1006.2 1005.8
09 13.01 З 3 20 км {снег} 10/0
[Ac und]
-13.0 -19.3 59 -19 -19 1006.2 1005.8 -12.1
12 13.01 З 5 20 км ясно -13.3 -22.0 48 -22 -22 1006.4 1006.0
15 13.01 З 6
{11}
20 км ясно -13.8 -24.2 41 -23 -23 1004.6 1004.2
18 13.01 З 6-11
{13}
20 км 6/6 600 м
[Sc]
-13.6 -23.4 43 -23 -23 1002.8 1002.4
21 13.01 З 8-11
{13}
20 км 10/0
[As op]
-12.4 -17.7 65 -23 -23 1001.3 1000.9 -14.7 5
00 14.01 З 6-10
{13}
4000 м слабый снег 10/0
[As op]
-12.2 -14.6 82 -21 -21 1001.0 1000.6
03 14.01 З 6-11
{13}
4000 м слабый снег 10/0
[As op]
-9.3 -12.2 79 -18 -17 999.7 999.3
06 14.01 СЗ 4
{12}
20 км {снег} 10/0
[As op]
-6.5 -13.1 59 -13 -13 1001.0 1000.6
09 14.01 С 6-14
{14}
4000 м слабый снег {метель} 10/0
[As op]
-5.9 -7.8 86 -14 -14 1003.7 1003.2 -4.6 1
12 14.01 С 5
{14}
4000 м слабый снег {метель} 10/0
[As op]
-5.7 -7.6 86 -13 -13 1006.5 1006.1
15 14.01 С 11-18
{20}
2000 м метель {снег} 10/0
[As op]
-5.3 -7.0 88 -15 -15 1009.8 1009.4
18 14.01 С 4
{18}
20 км {снег, метель} 1/1 1000 м
[Sc]
-5.8 -13.4 55 -12 -12 1012.4 1012.0
21 14.01 З 3 20 км 4/0
[Cs]
-6.9 -15.5 50 -12 -12 1011.3 1010.9 -7.2 3 12
00 15.01 СЗ 4 20 км 10/0
[As op]
-5.5 -15.1 47 -11 -11 1011.5 1011.1
03 15.01 С 6-12
{16}
10 км слабый снег 10/0
[As op]
-2.4 -6.9 71 -9 -9 1009.8 1009.4
06 15.01 С 5
{15}
2000 м снег {метель} 10/0
[As op]
-2.3 -3.9 89 -9 -9 1011.1 1010.7
09 15.01 С 8-14
{14}
10 км позёмок {снег, метель} 10/0
[As op]
-0.6 -3.7 80 -8 -8 1013.7 1013.3 -0.3 2
12 15.01 С 9-14
{17}
4000 м слабый снег {метель} 10/0
[As op]
-1.3 -2.5 92 -10 -10 1015.9 1015.5
15 15.01 С 12-17
{17}
10 км позёмок {снег, метель} 10/0
[As op]
-1.0 -4.2 79 -10 -10 1017.5 1017.1
18 15.01 С 13-17
{17}
10 км {снег, метель} 10/0
[As op]
-1.3 -4.7 78 -11 -11 1019.1 1018.7
21 15.01 С 5
{17}
10 км 10/0
[As op]
-1.9 -4.5 82 -8 -8 1020.5 1020.1 -1.9 0.3 15
00 16.01 С 5 50 км 10/10 600 м
[Sc]
-1.6 -3.9 84 -8 -8 1022.0 1021.6 -2.3
03 16.01 СВ 7
{12}
10 км слабый ливневой снег 10/10 600 м
[Cb cap]
-2.2 -5.1 80 -10 -10 1022.0 1021.6
06 16.01 СВ 8-10
{10}
10 км слабый ливневой снег 10/10 600 м
[Cb cap]
-2.4 -6.4 74 -10 -10 1022.3 1021.9
09 16.01 С 9-11
{11}
4000 м слабый ливневой снег 10/10 600 м
[Cb cap]
-3.5 -7.1 76 -12 -12 1024.0 1023.6 -1.5 0.2
12 16.01 С 2
{11}
4000 м слабый ливневой снег 10/10 600 м
[Cb cap]
-4.2 -9.2 68 -8 -8 1025.1 1024.7
15 16.01 СЗ 2 4000 м слабый ливневой снег 10/10 600 м
[Cb cap]
-5.3 -8.8 76 -9 -9 1025.4 1024.9

 

Местоположение метеостанции Сосуново (Приморский край, Россия): широта 46.55 долгота 138.30 высота над уровнем моря 4 м.

В архиве по умолчанию представлена погода в Сосуново за последнюю неделю. Архивные данные за месяц целиком и за предыдущие месяцы, начиная с января 2011 года, Вы можете получить, выбрав интересующий диапазон дат из раскрывающегося списка и нажав кнопку "Ввод!".

Внимание! Время в таблицах - всемирное. Для получения местного времени необходимо прибавить поправку, которая в Сосуново равна 10 ч.

Ветер - указаны скорость ветра в м/с - средняя за 10 мин, порывы в срок и между сроками (в фигурных скобках) и направление, откуда дует ветер: С - северный, СВ - северо-восточный, В - восточный, ЮВ - юго-восточный, Ю - южный, ЮЗ - юго-западный, З - западный, СЗ - северо-западный.
Видимость - горизонтальная дальность видимости в метрах или километрах. При видимости от 1 до 10 км при отсутствии осадков обычно наблюдается дымка, при ухудшении видимости до 1 км и менее - туман. В сухую погоду видимость может ухудшаться дымом, пылью или мглою.
Явления - указаны атмосферные явления, наблюдавшиеся в срок или в последний час перед сроком; фигурными скобками обозначены явления, наблюдавшиеся между сроками (за 1-3 часа до срока); квадратными скобками обозначены град или гололедные отложения с указанием их диаметра в мм.
Облачность - указаны через наклонную черту общая и нижняя облачность в баллах и высота нижней границы облаков в метрах; квадратными скобками обозначены формы облаков: Ci - перистые, Cs - перисто-слоистые, Cc - перисто-кучевые, Ac - высококучевые, As - высокослоистые, Sc - слоисто-кучевые, Ns - слоисто-дождевые, Cu - кучевые, Cb - кучево-дождевые. Подробнее классификацию облаков см. в Атласе облаков (PDF).
T - Температура воздуха - температура, измеренная на высоте 2 м над землей.
Td - Температура точки росы - температура, при понижении до которой содержащийся в воздухе водяной пар достигнет насыщения.
f - Относительная влажность воздуха - влажноcть воздуха, измеренная на высоте 2 м над землей.
Te - Эффективная температура - температура, которую ощущает одетый по сезону человек в тени. Характеристика душности погоды. При расчете учитывается влияние влажности воздуха и скорости ветра на теплоощущения человека.
Tes - Эффективная температура на солнце - температура, которую ощущает человек, с поправкой на солнечный нагрев. Характеристика знойности погоды. Зависит от высоты солнца над горизонтом, облачности и скорости ветра. Ночью, в пасмурную погоду, а также при ветре 12 м/с и более поправка равна нулю.
P - Атмосферное давление - приведенное к уровню моря атмосферное давление.
Po - Атмосферное давление - измеренное на уровне метеостанции атмосферное давление.
Tmin - Минимальная температура - минимум температуры воздуха на высоте 2 м над землей.
Tmax - Максимальная температура - максимум температуры воздуха на высоте 2 м над землей.
R - Количество осадков - Количество выпавших осадков, мм. При наведении курсора мыши на число - период времени, за который выпало указанное количество осадков.
S - Снежный покров - Высота снежного покрова, см. При наведении курсора мыши на число - состояние снежного покрова и степень покрытия местности в баллах.